sat.trackr.live / text

‹ back to catalog

STARLINK-5697

NORAD 55589 · 2023-020W

PAYLOAD ACTIVE UNKNOWN

§ Identity

Operator
Country
US
Launch date
2023-02-12
Launch site
AFETR
Launch vehicle
Mass (kg)
RCS (m²)

Purposes: comms

External: N2YO · Heavens-Above · Gunter

§ Orbital elements

Epoch: 2026-05-25T03:11:17.942784Z

Period
94.27 min
Inclination
43.0041°
Eccentricity
0.0001743
Mean motion
15.27579097 rev/d
Perigee alt
481.9 km
Apogee alt
484.2 km
Semi-major
6,861.2 km
B*
9.1991e-6
RAAN
293.5040°
Arg perigee
281.6571°
Mean anomaly
78.4086°
Rev number
18,060

§ Raw data

STARLINK-56971 55589U 23020W   26145.13284656 -.00000009  00000+0  91991-5 0  99952 55589  43.0041 293.5040 0001743 281.6571  78.4086 15.27579097180604

JSON: /api/v1/satellites/55589 · /tle

For live sub-satellite position, see the globe view (requires WebGL).

§ Visibility from observer

Set your observer location to see the next 7 days of passes ≥ 10°. The values pass through the URL so the page stays shareable.

No JS? Fill the form by hand. The geolocation button needs JavaScript.